| time (UTC) | temp F | wind direction | speed MPH | gust MPH | rain 1hr in | rain 24hr in | rain mn in | humidity % | barometer mb |
| 20260904215002 | 97 | 158 | 4.0 | 4.0 | 0.00 | 0.00 | 0.00 | 51 | 1009.5 |
| 20260904212306 | 96 | 158 | 3.0 | 3.0 | 0.00 | 0.00 | 0.00 | 54 | 1009.1 |
| 20260904203202 | 96 | 158 | 3.0 | 3.0 | 0.00 | 0.00 | 0.00 | 54 | 1009.5 |
| 20260904202103 | 96 | 158 | 3.0 | 4.0 | 0.00 | 0.00 | 0.00 | 54 | 1009.5 |
| 20260904175502 | 90 | 135 | 3.0 | 3.0 | 0.00 | 0.00 | 0.00 | 63 | 1010.2 |
| 20260904173902 | 82 | 113 | 4.0 | 4.0 | 0.00 | 0.00 | 0.00 | 74 | 1010.5 |
| 20260904142903 | 82 | 158 | 2.0 | 2.0 | 0.00 | 0.00 | 0.00 | 74 | 1010.2 |
| 20260904124102 | 78 | 158 | 2.0 | 2.0 | 0.00 | 0.00 | 0.00 | 78 | 1009.5 |
| 20260904122502 | 77 | 158 | 1.0 | 2.0 | 0.00 | 0.00 | 0.00 | 78 | 1009.5 |
| 20260904115902 | 77 | 158 | 2.0 | 2.0 | 0.00 | 0.00 | 0.00 | 78 | 1009.1 |
| 20260904114602 | 78 | 158 | 1.0 | 1.0 | 0.00 | 0.00 | 0.00 | 76 | 1009.5 |
| 20260904113202 | 78 | 45 | 2.0 | 2.0 | 0.00 | 0.00 | 0.00 | 76 | 1009.1 |
| 20260904104902 | 81 | 45 | 2.0 | 2.0 | 0.00 | 0.00 | 0.00 | 70 | 1009.1 |
| 20260904101703 | 81 | 158 | 3.0 | 3.0 | 0.00 | 0.00 | 0.00 | 70 | 1009.1 |
| 20260904100402 | 81 | 158 | 2.0 | 2.0 | 0.00 | 0.00 | 0.00 | 70 | 1009.1 |
| 20260904091302 | 81 | 248 | 2.0 | 2.0 | 0.00 | 0.00 | 0.00 | 70 | 1008.5 |
| 20260904084702 | 81 | 113 | 4.0 | 4.0 | 0.00 | 0.00 | 0.00 | 69 | 1008.5 |
| 20260904083202 | 81 | 158 | 4.0 | 5.0 | 0.00 | 0.00 | 0.00 | 69 | 1008.5 |
| 20260904081902 | 81 | 135 | 9.0 | 9.0 | 0.00 | 0.00 | 0.00 | 68 | 1008.5 |
| 20260904080702 | 82 | 248 | 4.0 | 5.0 | 0.00 | 0.00 | 0.00 | 68 | 1008.5 |
| 20260904075602 | 82 | 158 | 4.0 | 7.0 | 0.00 | 0.00 | 0.00 | 66 | 1008.1 |
| 20260904074402 | 82 | 113 | 5.0 | 5.0 | 0.00 | 0.00 | 0.00 | 66 | 1008.1 |
| 20260904073202 | 82 | 135 | 6.0 | 6.0 | 0.00 | 0.00 | 0.00 | 65 | 1008.5 |
| 20260904071003 | 82 | 113 | 3.0 | 11.0 | 0.00 | 0.00 | 0.00 | 65 | 1008.5 |
| 20260904065802 | 82 | 180 | 2.0 | 5.0 | 0.00 | 0.00 | 0.00 | 65 | 1008.5 |
| 20260904064702 | 82 | 23 | 7.0 | 8.0 | 0.00 | 0.00 | 0.00 | 65 | 1008.5 |
| 20260904062402 | 82 | 338 | 2.0 | 5.0 | 0.00 | 0.00 | 0.00 | 65 | 1008.8 |
| 20260904061302 | 83 | 23 | 4.0 | 4.0 | 0.00 | 0.00 | 0.00 | 65 | 1008.5 |
| 20260904055002 | 83 | 158 | 2.0 | 5.0 | 0.00 | 0.00 | 0.00 | 63 | 1008.5 |
| 20260904053902 | 83 | 113 | 5.0 | 5.0 | 0.00 | 0.00 | 0.00 | 63 | 1008.5 |
| 20260904051702 | 83 | 68 | 4.0 | 4.0 | 0.00 | 0.00 | 0.00 | 65 | 1008.1 |
| 20260904050402 | 84 | 90 | 2.0 | 2.0 | 0.00 | 0.00 | 0.00 | 65 | 1008.1 |
| 20260904045402 | 84 | 338 | 2.0 | 3.0 | 0.00 | 0.00 | 0.02 | 65 | 1008.1 |
| 20260904044402 | 84 | 45 | 4.0 | 4.0 | 0.00 | 0.00 | 0.02 | 65 | 1008.1 |
| 20260904041903 | 84 | 180 | 1.0 | 2.0 | 0.00 | 0.00 | 0.02 | 63 | 1008.5 |
| 20260904035602 | 85 | 248 | 3.0 | 3.0 | 0.00 | 0.00 | 0.02 | 63 | 1008.1 |
| 20260904034402 | 85 | 180 | 2.0 | 10.0 | 0.00 | 0.00 | 0.02 | 63 | 1008.1 |
| 20260904033202 | 85 | 338 | 3.0 | 3.0 | 0.00 | 0.00 | 0.02 | 63 | 1008.1 |
| 20260904031702 | 86 | 180 | 3.0 | 3.0 | 0.00 | 0.00 | 0.02 | 63 | 1008.1 |
| 20260904025902 | 86 | 113 | 2.0 | 6.0 | 0.00 | 0.00 | 0.02 | 63 | 1008.1 |
| 20260904024702 | 86 | 45 | 3.0 | 3.0 | 0.00 | 0.00 | 0.02 | 63 | 1007.8 |
| 20260904023602 | 86 | 225 | 3.0 | 4.0 | 0.00 | 0.00 | 0.02 | 63 | 1007.8 |
| 20260904022501 | 87 | 270 | 5.0 | 5.0 | 0.00 | 0.00 | 0.02 | 63 | 1008.1 |
| 20260904021102 | 87 | 248 | 0.0 | 3.0 | 0.00 | 0.00 | 0.02 | 61 | 1007.8 |
| 20260904015903 | 87 | 45 | 3.0 | 3.0 | 0.00 | 0.00 | 0.02 | 61 | 1007.5 |
| 20260904011302 | 89 | 270 | 1.0 | 2.0 | 0.00 | 0.00 | 0.02 | 61 | 1007.5 |
| 20260904004402 | 90 | 315 | 2.0 | 2.0 | 0.00 | 0.00 | 0.02 | 60 | 1007.1 |
| 20260904003202 | 91 | 45 | 5.0 | 5.0 | 0.00 | 0.00 | 0.02 | 58 | 1007.1 |
| 20260904002102 | 91 | 45 | 2.0 | 4.0 | 0.00 | 0.00 | 0.02 | 58 | 1006.8 |
| 20260903235202 | 93 | 270 | 2.0 | 3.0 | 0.00 | 0.00 | 0.02 | 55 | 1006.8 |
| 20260903234002 | 93 | 0 | 5.0 | 5.0 | 0.00 | 0.00 | 0.02 | 54 | 1006.8 |
| 20260903232703 | 97 | 248 | 7.0 | 7.0 | 0.00 | 0.00 | 0.02 | 51 | 1006.8 |